Marco Island Airport, FL

4:44 PM EDT on October 20, 2017 (GMT -0400)
Marco Island

Weather History for KMKY - December, 2013

Change the Weather History Date:

Friday, December 20, 2013

  Actual Average (KAPF) Record (KAPF)
Temperature  
Mean Temperature 72 °F -  
Max Temperature 84 °F 77 °F 87 °F (1990)
Min Temperature 60 °F 53 °F 29 °F (1981)
Cooling Degree Days 7    
Growing Degree Days 22 (Base 50)    
Moisture  
Dew Point -    
Average Humidity    
Maximum Humidity    
Minimum Humidity    
Precipitation  
Precipitation 0.00 in - - ()
Sea Level Pressure  
Sea Level Pressure 30.13 in    
Wind  
Wind Speed 8 mph (East)    
Max Wind Speed 20 mph    
Max Gust Speed 28 mph    
Visibility 10 miles    
Events      
Averages and records for this station are not official NWS values.
T = Trace of Precipitation, MM = Missing Value Source: NWS Daily Summary

Daily Weather History Graph

Daily Weather History Graph

Search for Another Location

Airport or City:

Trip Planner

Search our weather history database for the weather conditions in past years. The results will help you decide how hot, cold, wet, or windy it might be!

Date:

Astronomy

Dec. 20, 2013 Rise Set
Actual Time 7:09 AM EST 5:39 PM EST
Civil Twilight 6:43 AM EST 6:05 PM EST
Nautical Twilight 6:15 AM EST 6:33 PM EST
Astronomical Twilight 5:46 AM EST 7:02 PM EST
Moon 8:43 PM EST 9:16 AM EST
Length of Visible Light 11h 21m
Length of Day
10h 30m
Waning Gibbous, 90% of the Moon is Illuminated
Dec 20
Waning Gibbous
Dec 25
Last Quarter
Jan 1
New
Jan 7
First Quarter
Jan 15
Full

Hourly Weather History & Observations

Time (EST) Temp. Dew Point Humidity Pressure Visibility Wind Dir Wind Speed Gust Speed Precip Events Conditions
12:15 AM 62.6 °F - N/A% 30.15 in 10.0 mi NE 6.9 mph - N/A   Clear
12:35 AM 62.6 °F - N/A% 30.15 in 10.0 mi NE 6.9 mph - N/A   Clear
12:55 AM 62.6 °F - N/A% 30.15 in 10.0 mi NE 6.9 mph - N/A   Clear
1:15 AM 60.8 °F - N/A% 30.14 in 10.0 mi NE 5.8 mph - N/A   Clear
1:35 AM 60.8 °F - N/A% 30.14 in 10.0 mi NE 6.9 mph - N/A   Clear
1:55 AM 60.8 °F - N/A% 30.14 in 10.0 mi NE 6.9 mph - N/A   Clear
2:15 AM 60.8 °F - N/A% 30.13 in 10.0 mi NE 6.9 mph - N/A   Clear
2:35 AM 60.8 °F - N/A% 30.13 in 10.0 mi NNE 5.8 mph - N/A   Clear
2:55 AM 60.8 °F - N/A% 30.13 in 10.0 mi NE 5.8 mph - N/A   Clear
3:15 AM 60.8 °F - N/A% 30.13 in 10.0 mi ENE 5.8 mph - N/A   Clear
3:35 AM 60.8 °F - N/A% 30.13 in 10.0 mi ENE 5.8 mph - N/A   Clear
3:55 AM 60.8 °F - N/A% 30.12 in 10.0 mi NE 8.1 mph - N/A   Clear
4:15 AM 60.8 °F - N/A% 30.12 in 10.0 mi NE 6.9 mph - N/A   Clear
4:35 AM 60.8 °F - N/A% 30.12 in 10.0 mi ENE 5.8 mph - N/A   Clear
4:55 AM 60.8 °F - N/A% 30.12 in 10.0 mi ENE 5.8 mph - N/A   Partly Cloudy
5:15 AM 60.8 °F - N/A% 30.13 in 10.0 mi East 5.8 mph - N/A   Mostly Cloudy
5:35 AM 60.8 °F - N/A% 30.13 in 10.0 mi ENE 5.8 mph - N/A   Overcast
5:55 AM 60.8 °F - N/A% 30.13 in 10.0 mi ENE 6.9 mph - N/A   Overcast
6:15 AM 60.8 °F - N/A% 30.14 in 10.0 mi ENE 5.8 mph - N/A   Mostly Cloudy
6:35 AM 60.8 °F - N/A% 30.14 in 10.0 mi ENE 4.6 mph - N/A   Scattered Clouds
6:55 AM 60.8 °F - N/A% 30.14 in 10.0 mi ENE 5.8 mph - N/A   Partly Cloudy
7:15 AM 60.8 °F - N/A% 30.14 in 10.0 mi ENE 6.9 mph - N/A   Clear
7:35 AM 60.8 °F - N/A% 30.14 in 10.0 mi East 5.8 mph - N/A   Clear
7:55 AM 62.6 °F - N/A% 30.15 in 10.0 mi East 6.9 mph - N/A   Clear
8:15 AM 64.4 °F - N/A% 30.15 in 10.0 mi East 6.9 mph - N/A   Clear
8:35 AM 66.2 °F - N/A% 30.15 in 10.0 mi East 6.9 mph - N/A   Clear
8:55 AM 69.8 °F - N/A% 30.16 in 10.0 mi East 8.1 mph - N/A   Clear
9:15 AM 73.4 °F - N/A% 30.16 in 10.0 mi East 9.2 mph - N/A   Clear
9:35 AM 77.0 °F - N/A% 30.16 in 10.0 mi ESE 15.0 mph 18.4 mph N/A   Clear
9:55 AM 78.8 °F - N/A% 30.16 in 10.0 mi East 15.0 mph 21.9 mph N/A   Clear
10:15 AM 80.6 °F - N/A% 30.16 in 10.0 mi ESE 15.0 mph 21.9 mph N/A   Clear
10:35 AM 80.6 °F - N/A% 30.16 in 10.0 mi ESE 19.6 mph 27.6 mph N/A   Clear
10:55 AM 82.4 °F - N/A% 30.16 in 10.0 mi East 17.3 mph 26.5 mph N/A   Scattered Clouds
11:15 AM 82.4 °F - N/A% 30.16 in 10.0 mi East 15.0 mph 23.0 mph N/A   Scattered Clouds
11:35 AM 84.2 °F - N/A% 30.16 in 10.0 mi ESE 13.8 mph 20.7 mph N/A   Mostly Cloudy
11:55 AM 84.2 °F - N/A% 30.15 in 10.0 mi ESE 16.1 mph 20.7 mph N/A   Mostly Cloudy
12:15 PM 82.4 °F - N/A% 30.14 in 10.0 mi ESE 12.7 mph 20.7 mph N/A   Mostly Cloudy
12:35 PM 84.2 °F - N/A% 30.13 in 10.0 mi East 12.7 mph 20.7 mph N/A   Partly Cloudy
12:55 PM 84.2 °F - N/A% 30.12 in 10.0 mi ESE 13.8 mph 20.7 mph N/A   Scattered Clouds
1:15 PM 84.2 °F - N/A% 30.11 in 10.0 mi ESE 13.8 mph 19.6 mph N/A   Partly Cloudy
1:35 PM 84.2 °F - N/A% 30.10 in 10.0 mi ESE 12.7 mph 24.2 mph N/A   Scattered Clouds
1:55 PM 84.2 °F - N/A% 30.09 in 10.0 mi ESE 12.7 mph 18.4 mph N/A   Mostly Cloudy
2:15 PM 84.2 °F - N/A% 30.09 in 10.0 mi East 16.1 mph 19.6 mph N/A   Mostly Cloudy
2:35 PM 82.4 °F - N/A% 30.09 in 10.0 mi ESE 15.0 mph 19.6 mph N/A   Mostly Cloudy
2:55 PM 82.4 °F - N/A% 30.08 in 10.0 mi ESE 9.2 mph - N/A   Scattered Clouds
3:15 PM 82.4 °F - N/A% 30.08 in 10.0 mi ESE 10.4 mph - N/A   Mostly Cloudy
3:35 PM 82.4 °F - N/A% 30.08 in 10.0 mi ESE 11.5 mph 18.4 mph N/A   Scattered Clouds
3:55 PM 82.4 °F - N/A% 30.08 in 10.0 mi East 12.7 mph 18.4 mph N/A   Scattered Clouds
4:15 PM 82.4 °F - N/A% 30.08 in 10.0 mi ESE 12.7 mph 17.3 mph N/A   Clear
4:35 PM 82.4 °F - N/A% 30.08 in 10.0 mi SE 16.1 mph 21.9 mph N/A   Scattered Clouds
4:55 PM 80.6 °F - N/A% 30.09 in 10.0 mi ESE 11.5 mph - N/A   Partly Cloudy
5:15 PM 80.6 °F - N/A% 30.09 in 10.0 mi ESE 10.4 mph - N/A   Clear
5:35 PM 78.8 °F - N/A% 30.09 in 10.0 mi ESE 10.4 mph - N/A   Clear
5:55 PM 77.0 °F - N/A% 30.10 in 10.0 mi ESE 6.9 mph - N/A   Clear
6:15 PM 75.2 °F - N/A% 30.11 in 10.0 mi East 6.9 mph - N/A   Clear
6:35 PM 73.4 °F - N/A% 30.11 in 10.0 mi ESE 5.8 mph - N/A   Clear
6:55 PM 73.4 °F - N/A% 30.12 in 10.0 mi ESE 5.8 mph - N/A   Partly Cloudy
7:15 PM 73.4 °F - N/A% 30.13 in 10.0 mi East 5.8 mph - N/A   Scattered Clouds
7:35 PM 71.6 °F - N/A% 30.14 in 10.0 mi East 5.8 mph - N/A   Clear
7:55 PM 71.6 °F - N/A% 30.14 in 10.0 mi ENE 6.9 mph - N/A   Partly Cloudy
8:15 PM 71.6 °F - N/A% 30.14 in 10.0 mi East 6.9 mph - N/A   Clear
8:35 PM 69.8 °F - N/A% 30.15 in 10.0 mi East 6.9 mph - N/A   Clear
8:55 PM 69.8 °F - N/A% 30.15 in 10.0 mi ENE 6.9 mph - N/A   Clear
9:15 PM 69.8 °F - N/A% 30.15 in 10.0 mi East 6.9 mph - N/A   Clear
9:35 PM 69.8 °F - N/A% 30.15 in 10.0 mi East 6.9 mph - N/A   Clear
9:55 PM 69.8 °F - N/A% 30.15 in 10.0 mi ENE 6.9 mph - N/A   Clear
10:15 PM 69.8 °F - N/A% 30.15 in 10.0 mi ENE 5.8 mph - N/A   Scattered Clouds
10:35 PM 69.8 °F - N/A% 30.15 in 10.0 mi ENE 5.8 mph - N/A   Scattered Clouds
10:55 PM 69.8 °F - N/A% 30.15 in 10.0 mi NE 6.9 mph - N/A   Clear
11:15 PM 69.8 °F - N/A% 30.15 in 10.0 mi ENE 6.9 mph - N/A   Clear
11:35 PM 68.0 °F - N/A% 30.14 in 10.0 mi ENE 5.8 mph - N/A   Clear
11:55 PM 68.0 °F - N/A% 30.14 in 10.0 mi East 6.9 mph - N/A   Clear